DW9498 Weather Reports


Display with metric or nautical units.
time (UTC)temp
F
wind
direction
speed
MPH
gust
MPH
rain 1hr
in
rain 24hr
in
rain mn
in
humidity
%
barometer
mb
20260902024335 85 126 0.0 0.0 0.00 0.00 0.00 61 1010.9
20260902023326 85 164 0.0 2.0 0.00 0.00 0.00 61 1010.8
20260902022338 86 176 0.0 0.0 0.00 0.00 0.00 61 1010.7
20260902021324 86 85 0.0 1.0 0.00 0.00 0.00 60 1010.4
20260902020339 87 176 0.0 0.0 0.00 0.00 0.00 60 1010.4
20260902015324 87 177 0.0 1.0 0.00 0.00 0.00 59 1010.4
20260902014329 88 225 0.0 0.0 0.00 0.00 0.00 58 1010.2
20260902013335 89 183 0.0 2.0 0.00 0.00 0.00 57 1010.0
20260902012402 89 182 0.0 2.0 0.00 0.00 0.00 56 1009.9
20260902011331 89 221 0.0 1.0 0.00 0.00 0.00 56 1009.9
20260902010344 90 154 0.0 2.0 0.00 0.00 0.00 56 1009.9
20260902005326 90 179 0.0 0.0 0.00 0.00 0.00 56 1009.8
20260902004344 91 166 0.0 1.0 0.00 0.00 0.00 55 1009.8
20260902003325 92 135 0.0 1.0 0.00 0.00 0.00 53 1009.8
20260902002337 93 142 0.0 1.0 0.00 0.00 0.00 51 1009.8
20260902001341 94 157 0.0 1.0 0.00 0.00 0.00 50 1009.8
20260902000407 95 222 0.0 3.0 0.00 0.00 0.00 48 1009.9
20260901235329 97 169 2.0 5.0 0.00 0.00 0.00 46 1010.0
20260901234334 98 169 2.0 6.0 0.00 0.00 0.00 45 1010.1
20260901233343 98 152 1.0 3.0 0.00 0.00 0.00 45 1010.2
20260901232330 98 157 1.0 4.0 0.00 0.00 0.00 47 1010.2
20260901231339 97 150 2.0 6.0 0.00 0.00 0.00 46 1010.1
20260901230329 98 156 2.0 7.0 0.00 0.00 0.00 46 1010.2
20260901225359 98 149 3.0 8.0 0.00 0.00 0.00 46 1010.4
20260901224339 98 144 3.0 6.0 0.00 0.00 0.00 45 1010.5
20260901223345 98 281 2.0 7.0 0.00 0.00 0.00 45 1010.4
20260901222329 98 149 3.0 8.0 0.00 0.00 0.00 45 1010.4
20260901221334 98 225 2.0 8.0 0.00 0.00 0.00 47 1010.5
20260901220345 98 152 4.0 7.0 0.00 0.00 0.00 46 1010.7
20260901215329 97 145 3.0 8.0 0.00 0.00 0.00 46 1010.7
20260901214336 97 163 2.0 9.0 0.00 0.00 0.00 46 1010.8
20260901213347 97 153 2.0 6.0 0.00 0.00 0.00 48 1010.8
20260901212329 97 243 3.0 7.0 0.00 0.00 0.00 48 1010.9
20260901211334 97 166 3.0 7.0 0.00 0.00 0.00 48 1011.0
20260901210323 97 162 2.0 8.0 0.00 0.00 0.00 48 1011.1
20260901205333 96 130 2.0 9.0 0.00 0.00 0.00 49 1011.1
20260901204340 96 312 2.0 8.0 0.00 0.00 0.00 49 1011.3
20260901203348 96 187 3.0 9.0 0.00 0.00 0.00 49 1011.4
20260901202330 96 190 3.0 8.0 0.00 0.00 0.00 49 1011.6
20260901201401 96 164 3.0 8.0 0.00 0.00 0.00 50 1011.7
20260901200351 96 204 2.0 8.0 0.00 0.00 0.00 50 1011.8
20260901195341 95 123 4.0 10.0 0.00 0.00 0.00 50 1011.9
20260901194344 95 273 2.0 7.0 0.00 0.00 0.00 49 1011.9
20260901193325 95 135 3.0 8.0 0.00 0.00 0.00 49 1012.1
20260901192336 95 255 1.0 6.0 0.00 0.00 0.00 49 1012.1
20260901191340 95 251 1.0 5.0 0.00 0.00 0.00 49 1012.3
20260901190348 94 171 1.0 4.0 0.00 0.00 0.00 49 1012.4
20260901185334 94 170 3.0 6.0 0.00 0.00 0.00 49 1012.4
20260901184339 94 181 2.0 6.0 0.00 0.00 0.00 49 1012.4
20260901183350 94 145 2.0 7.0 0.00 0.00 0.00 49 1012.5
20260901182340 94 179 1.0 4.0 0.00 0.00 0.00 49 1012.5
20260901181326 93 140 1.0 3.0 0.00 0.00 0.00 50 1012.6
20260901180333 93 305 1.0 3.0 0.00 0.00 0.00 51 1012.7
20260901175402 92 249 0.0 4.0 0.00 0.00 0.00 52 1012.8
20260901174326 92 173 0.0 5.0 0.00 0.00 0.00 53 1012.9
20260901173330 91 147 0.0 5.0 0.00 0.00 0.00 53 1012.9
20260901172339 91 152 1.0 4.0 0.00 0.00 0.00 54 1013.1
20260901171326 90 292 0.0 2.0 0.00 0.00 0.00 56 1013.2
20260901170334 89 167 1.0 4.0 0.00 0.00 0.00 54 1013.1
20260901165329 88 236 1.0 4.0 0.00 0.00 0.00 55 1013.1
20260901164334 89 176 1.0 4.0 0.00 0.00 0.00 55 1013.2
20260901163324 88 163 1.0 5.0 0.00 0.00 0.00 56 1013.3
20260901162335 88 214 1.0 4.0 0.00 0.00 0.00 55 1013.3
20260901161335 87 216 0.0 4.0 0.00 0.00 0.00 56 1013.3
20260901160324 87 223 0.0 3.0 0.00 0.00 0.00 57 1013.4
20260901155336 86 172 1.0 4.0 0.00 0.00 0.00 57 1013.2
20260901154343 86 155 1.0 4.0 0.00 0.00 0.00 58 1013.2
20260901153349 86 161 0.0 3.0 0.00 0.00 0.00 57 1013.1
20260901152335 85 169 1.0 3.0 0.00 0.00 0.00 58 1013.0
20260901151341 84 147 1.0 3.0 0.00 0.00 0.00 59 1013.0
20260901150349 83 259 0.0 3.0 0.00 0.00 0.00 61 1013.2
20260901145329 82 139 0.0 3.0 0.00 0.00 0.00 63 1013.2
20260901144324 81 148 0.0 4.0 0.00 0.00 0.00 64 1013.2
20260901143350 80 243 2.0 3.0 0.00 0.00 0.00 65 1013.3
20260901142334 80 210 0.0 3.0 0.00 0.00 0.00 67 1013.4
20260901141340 79 152 0.0 3.0 0.00 0.00 0.00 69 1013.5
20260901140330 79 168 0.0 0.0 0.00 0.00 0.00 71 1013.5
20260901135323 78 214 0.0 0.0 0.00 0.00 0.00 72 1013.4
20260901134345 78 160 0.0 1.0 0.00 0.00 0.00 72 1013.5
20260901133327 77 285 0.0 0.0 0.00 0.00 0.00 73 1013.4
20260901132342 77 225 0.0 0.0 0.00 0.00 0.00 75 1013.5
20260901131356 77 225 0.0 0.0 0.00 0.00 0.00 75 1013.5
20260901130342 76 246 0.0 0.0 0.00 0.00 0.00 75 1013.5
20260901125349 76 186 0.0 0.0 0.00 0.00 0.00 76 1013.4
20260901124401 76 185 0.0 0.0 0.00 0.00 0.00 77 1013.4
20260901123330 75 185 0.0 1.0 0.00 0.00 0.00 77 1013.2
20260901122333 75 186 0.0 0.0 0.00 0.00 0.00 77 1013.0
20260901121341 75 189 0.0 0.0 0.00 0.00 0.00 77 1012.9
20260901120331 75 182 0.0 0.0 0.00 0.00 0.00 78 1012.8
20260901115326 75 182 0.0 0.0 0.00 0.00 0.00 78 1012.7
20260901114329 75 182 0.0 0.0 0.00 0.00 0.00 78 1012.8
20260901113338 75 182 0.0 0.0 0.00 0.00 0.00 77 1012.9
20260901112333 76 182 0.0 0.0 0.00 0.00 0.00 76 1012.9
20260901111351 76 182 0.0 0.0 0.00 0.00 0.00 75 1012.9
20260901110333 77 182 0.0 1.0 0.00 0.00 0.00 74 1012.9
20260901105347 76 154 0.0 0.0 0.00 0.00 0.00 76 1012.9
20260901104401 76 154 0.0 0.0 0.00 0.00 0.00 77 1012.9
20260901103350 77 213 0.0 0.0 0.00 0.00 0.00 78 1012.9
20260901102332 77 213 0.0 0.0 0.00 0.00 0.00 78 1013.0
20260901101354 77 213 0.0 0.0 0.00 0.00 0.00 78 1013.1
20260901100344 77 213 0.0 0.0 0.00 0.00 0.00 79 1013.1
20260901095332 77 213 0.0 0.0 0.00 0.00 0.00 79 1013.2
20260901094337 77 178 0.0 0.0 0.00 0.00 0.00 80 1013.2
20260901093349 77 178 0.0 0.0 0.00 0.00 0.00 80 1013.2
20260901092334 77 180 0.0 0.0 0.00 0.00 0.00 80 1013.2
20260901091405 77 154 0.0 0.0 0.00 0.00 0.00 80 1013.2
20260901090327 77 154 0.0 0.0 0.00 0.00 0.00 81 1013.2
20260901085339 76 154 0.0 0.0 0.00 0.00 0.00 82 1013.2
20260901084343 76 146 0.0 0.0 0.00 0.00 0.00 84 1013.1
20260901083335 75 146 0.0 0.0 0.00 0.00 0.00 85 1013.1
20260901082345 76 146 0.0 0.0 0.00 0.00 0.00 85 1013.1
20260901081334 76 147 0.0 0.0 0.00 0.00 0.00 85 1013.2
20260901080344 76 147 0.0 0.0 0.00 0.00 0.00 85 1013.1
20260901075328 76 147 0.0 0.0 0.00 0.00 0.00 85 1013.1
20260901074337 76 147 0.0 0.0 0.00 0.00 0.00 84 1013.2
20260901073348 76 147 0.0 0.0 0.00 0.00 0.00 84 1013.2
20260901072335 76 147 0.0 0.0 0.00 0.00 0.00 84 1013.2
20260901071340 76 147 0.0 0.0 0.00 0.00 0.00 83 1013.2
20260901070332 77 146 0.0 0.0 0.00 0.00 0.00 83 1013.3
20260901065325 77 146 0.0 0.0 0.00 0.00 0.00 82 1013.2
20260901064334 77 146 0.0 0.0 0.00 0.00 0.00 83 1013.3
20260901063345 77 147 0.0 0.0 0.00 0.00 0.00 82 1013.3
20260901062347 77 147 0.0 0.0 0.00 0.00 0.00 82 1013.3
20260901061326 77 147 0.0 0.0 0.00 0.00 0.00 82 1013.4
20260901060351 77 147 0.0 0.0 0.00 0.00 0.00 81 1013.5
20260901055333 77 147 0.0 0.0 0.00 0.00 0.00 81 1013.5
20260901054339 77 146 0.0 0.0 0.00 0.00 0.00 81 1013.5
20260901053345 77 147 0.0 0.0 0.00 0.00 0.00 81 1013.5
20260901052347 77 147 0.0 0.0 0.00 0.00 0.00 82 1013.6
20260901051401 77 147 0.0 0.0 0.00 0.00 0.00 82 1013.6
20260901050350 77 146 0.0 0.0 0.00 0.00 0.00 82 1013.5
20260901045336 77 146 0.0 0.0 0.00 0.00 0.00 82 1013.7
20260901044325 77 147 0.0 0.0 0.00 0.00 0.00 81 1013.5
20260901043355 77 147 0.0 0.0 0.00 0.00 0.00 81 1013.5
20260901042329 78 147 0.0 0.0 0.00 0.00 0.00 81 1013.4
20260901041325 78 147 0.0 0.0 0.00 0.00 0.00 80 1013.5
20260901040333 78 146 0.0 0.0 0.00 0.00 0.00 79 1013.7
20260901035342 78 146 0.0 0.0 0.00 0.00 0.00 79 1013.5
20260901034328 78 147 0.0 0.0 0.00 0.00 0.00 79 1013.4
20260901033339 79 147 0.0 0.0 0.00 0.00 0.00 78 1013.4
20260901032326 79 147 0.0 0.0 0.00 0.00 0.00 78 1013.3
20260901031335 79 146 0.0 0.0 0.00 0.00 0.00 78 1013.3
20260901030329 79 147 0.0 0.0 0.00 0.00 0.00 77 1013.2
20260901025344 79 147 0.0 0.0 0.00 0.00 0.00 77 1013.2